RH
94 95 83 72 46 45 42 35 29 28 37 34 52 52 50 48 38 46 97 85 92 99 99 89 72 60 59 49 39 68 78 57 55 62 55 72 82 88 76 68 29 21 37 75 93 94 27 28 25
100 96 79 68 55 41 37 28 36 28 28 39 53 56 57 51 76 80 93 94 100 99 97 97 68 64 61 42 60 80 75 57 66 57 62 80 87 86 76 49 20 34 83 84 43 32 33 30 30
94 96 67 53 56 45 32 28 31 27 29 46 52 67 75 60 75 84 83 88 100 100 100 97 78 74 65 40 77 89 76 65 64 65 80 88 91 83 67 26 41 50 71 43 36 39 38 37 35
83 85 74 67 44 34 32 24 25 26 32 44 46 56 68 63 80 97 87 90 99 99 100 78 78 78 62 42 82 94 85 75 78 79 84 94 94 71 39 25 63 35 73 48 41 42 44 43 41
85 72 54 50 43 30 26 28 25 25 27 46 48 45 56 60 59 96 91 98 100 100 100 74 75 77 61 46 79 95 94 90 87 88 99 98 94 60 24 33 39 35 57 40 44 44 45 45 46
70 57 52 46 33 27 27 35 30 30 28 30 48 43 56 51 52 70 96 99 99 100 97 92 81 79 61 50 72 90 98 99 100 99 100 70 60 32 22 36 37 40 40 39 44 45 44 45 46
72 58 51 36 28 26 28 32 35 34 30 31 46 44 55 49 37 55 84 96 100 99 99 89 91 74 60 38 67 85 92 95 99 99 90 69 37 23 30 38 38 39 40 42 44 47 45 44 44
65 63 60 43 37 29 20 30 34 37 34 30 45 42 49 43 43 47 54 99 100 97 100 87 97 80 58 66 37 54 72 80 86 79 70 32 24 24 33 35 38 38 38 40 41 41 42 43 41
64 73 62 45 38 33 24 25 33 42 38 33 38 51 55 47 55 49 57 82 98 98 100 99 100 94 88 96 63 38 27 33 43 49 32 32 30 26 31 37 38 39 40 41 41 39 38 38 40
59 58 46 31 29 31 30 30 31 36 42 42 39 56 80 64 66 76 72 79 89 93 99 100 99 90 96 97 81 65 39 32 66 69 40 85 46 51 54 33 37 39 39 37 37 36 37 38 39
50 62 34 35 34 35 38 37 36 42 41 39 35 41 69 100 97 87 85 79 81 97 99 96 96 89 94 99 85 83 92 83 82 92 93 91 65 31 34 36 37 39 38 38 38 39 39 39 41
57 41 41 38 38 43 43 45 41 42 38 39 40 58 87 100 84 73 82 68 98 97 100 89 82 90 87 99 98 92 81 93 88 64 46 36 41 36 47 62 51 40 38 41 38 43 39 36 43
50 42 37 40 39 43 53 51 51 53 55 52 45 48 74 94 84 67 59 68 85 89 100 86 74 60 71 76 98 95 88 86 77 64 39 33 32 33 33 35 36 36 38 39 41 42 46 45 51
39 40 40 39 39 45 49 50 59 54 72 77 65 54 61 77 80 66 54 48 72 78 98 92 84 62 62 55 50 67 92 84 82 82 64 53 50 42 42 45 48 46 46 43 44 47 54 61 66
56 54 53 51 46 54 48 63 58 54 63 74 69 55 59 79 69 50 47 49 58 89 82 92 81 77 71 57 42 44 50 69 83 88 76 65 61 59 54 66 56 52 52 49 49 52 56 58 64
79 81 83 50 47 51 63 60 36 64 79 76 76 59 59 78 63 45 40 52 73 83 75 83 81 73 80 74 59 42 47 50 54 79 73 70 68 68 78 81 73 68 63 57 54 51 53 73 79
62 98 99 73 50 62 66 55 41 69 65 77 75 63 66 77 84 67 53 61 80 81 82 66 78 73 68 68 72 61 46 45 56 53 54 60 64 67 70 71 78 75 70 64 62 56 69 85 92
88 71 56 61 66 64 76 84 59 62 68 81 73 73 65 74 86 87 72 79 83 76 69 71 82 73 65 76 74 67 60 66 53 49 49 51 52 64 77 82 87 85 80 75 69 73 79 93 95
88 76 67 83 66 68 64 71 67 57 66 82 74 82 71 78 96 91 92 84 71 71 74 73 67 68 64 79 74 71 63 58 64 65 69 62 71 80 83 88 94 94 89 83 77 86 97 90 96
85 68 73 88 81 70 78 81 62 58 59 82 72 89 91 84 98 100 98 83 75 84 76 82 68 62 68 75 69 71 70 61 58 61 62 65 80 84 87 93 99 98 96 92 89 94 95 91 87
69 50 75 82 74 65 71 92 91 76 82 82 78 77 94 100 92 88 99 95 90 93 84 74 68 64 61 61 70 74 69 78 66 71 69 75 82 88 88 90 93 99 99 95 94 91 87 91 90
62 51 58 83 74 70 56 94 100 90 88 68 70 70 72 96 83 78 69 81 81 79 73 74 68 66 68 61 64 74 76 77 80 82 84 80 73 80 92 87 96 93 100 100 100 97 94 87 80
65 60 62 65 67 57 70 90 97 82 70 63 65 72 65 67 77 90 94 98 91 90 81 75 70 68 64 67 62 78 88 73 70 62 62 74 74 93 90 91 90 90 100 99 97 86 87 82 70
76 64 65 69 65 70 88 99 94 70 52 65 64 68 72 59 64 63 70 83 88 80 80 82 80 73 69 67 72 75 91 78 67 68 70 77 90 85 90 98 90 98 100 77 76 74 75 79 75
77 64 83 76 83 84 93 92 66 45 41 46 57 58 65 67 52 64 59 52 51 48 47 47 50 52 66 78 80 81 86 88 93 87 86 78 89 88 82 86 79 76 78 80 93 88 78 73 70
89 76 72 66 67 79 72 83 66 42 42 46 71 51 56 53 51 56 53 52 53 50 48 48 48 46 46 45 51 72 74 78 79 77 79 78 79 83 87 88 95 84 93 83 86 77 72 44 52
80 68 50 60 55 58 62 45 45 45 46 51 54 53 56 51 56 62 51 46 47 47 46 46 43 47 48 45 45 45 59 63 62 66 67 68 72 78 92 100 94 92 90 81 81 72 51 60 57
66 51 59 62 65 71 50 51 60 48 44 47 45 50 56 58 58 56 51 48 49 49 47 45 44 43 42 42 45 49 54 54 52 48 49 53 69 74 88 99 100 94 91 87 68 50 63 56 56
60 54 52 49 53 46 51 50 37 41 43 45 47 51 55 59 60 52 44 40 39 43 47 50 51 51 49 49 51 54 54 49 47 47 46 47 56 76 92 99 90 91 84 69 49 64 62 59 59
65 59 46 50 54 57 42 49 40 39 43 46 54 56 57 54 44 41 40 39 38 38 38 37 36 40 52 54 52 51 50 50 49 47 46 46 51 78 94 97 94 92 74 53 64 67 61 57 53
Wind_Speed
4 6 5 6 8 8 22 22 14 18 16 25 7 5 7 9 6 3 6 9 20 24 26 26 20 19 17 15 17 18 17 18 23 22 22 22 20 18 16 16 15 18 20 20 19 17 20 19 18
5 5 6 8 11 19 17 19 20 16 17 14 16 6 5 7 4 6 2 10 22 24 25 23 20 18 16 17 20 19 19 20 24 22 23 22 20 18 18 15 18 21 21 20 20 20 19 18 18
6 6 10 6 15 23 20 20 18 21 16 13 16 11 3 8 7 4 5 10 24 23 24 23 22 18 17 20 23 19 22 23 24 24 24 23 20 18 18 18 21 21 20 20 20 20 18 17 17
6 6 9 13 26 23 26 19 19 23 13 17 18 7 15 20 10 7 7 14 25 25 23 23 23 19 18 23 25 21 22 24 24 24 23 22 19 17 18 22 22 22 20 19 20 18 16 15 14
8 6 12 20 28 26 20 25 18 18 22 16 19 14 17 30 18 12 11 21 25 24 23 25 22 19 18 23 27 25 23 25 25 25 25 21 19 17 23 23 23 22 20 20 18 16 15 13 12
8 9 13 22 25 25 24 20 30 22 16 21 21 18 18 34 31 12 14 23 25 25 25 24 23 20 19 21 28 26 25 28 28 25 21 18 18 21 24 24 23 22 20 19 17 15 12 11 9
14 11 21 25 23 27 23 30 28 22 25 20 21 21 10 31 37 44 21 24 26 25 24 26 26 21 20 21 26 25 25 25 24 22 19 17 21 25 25 23 22 21 19 17 15 12 10 8 7
12 9 23 23 21 26 24 28 37 28 27 22 26 18 15 32 25 32 41 25 28 28 25 29 25 23 23 23 21 24 24 23 22 20 18 21 25 25 24 23 21 20 17 15 12 10 8 6 4
15 9 18 24 25 19 26 23 31 26 25 22 22 28 13 20 29 28 29 33 27 26 25 27 24 22 22 22 22 20 21 22 23 22 22 24 23 23 22 21 19 17 15 13 11 9 7 5 4
17 14 25 21 19 20 22 24 29 27 30 27 22 20 16 18 31 26 16 31 35 32 29 26 23 24 25 22 22 20 20 20 19 21 23 19 20 19 19 20 18 16 15 13 10 8 6 4 3
13 21 20 22 27 24 19 24 24 14 22 32 22 22 19 23 30 26 26 8 38 32 31 28 22 24 26 24 24 22 17 17 18 20 20 17 20 22 20 19 17 15 14 12 10 9 8 7 6
18 24 27 29 27 21 19 24 29 21 28 28 27 15 20 23 30 23 12 5 12 24 32 28 25 24 25 23 23 21 19 18 17 19 21 22 20 20 18 15 15 14 14 12 11 10 9 8 7
20 20 23 29 29 26 21 24 23 22 21 24 31 24 21 23 28 24 13 16 27 17 28 28 26 26 26 27 23 21 20 19 19 19 19 19 19 18 17 16 14 14 13 12 12 10 10 9 8
10 19 25 25 25 24 25 23 20 20 7 15 24 27 24 30 26 25 21 20 29 17 19 30 31 27 24 24 26 27 22 20 18 18 18 17 16 17 16 15 12 12 13 13 11 11 10 8 7
12 17 15 20 26 19 23 22 22 20 14 15 22 32 27 34 27 22 15 26 37 21 18 23 24 24 21 19 20 25 25 23 20 18 16 15 15 14 14 12 11 11 11 11 11 11 11 10 9
3 9 11 12 20 24 16 19 21 4 7 16 18 35 29 38 36 23 13 23 34 33 21 28 23 24 22 18 16 18 22 22 22 19 19 17 15 14 13 13 11 11 12 12 12 11 11 9 8
6 8 12 11 20 10 17 10 7 6 11 19 19 26 26 36 37 22 27 34 35 32 30 32 25 22 22 19 17 14 15 18 18 19 20 19 17 17 15 13 13 13 13 14 13 12 10 8 7
7 11 4 6 13 15 12 12 6 10 16 22 13 21 27 37 45 25 32 34 34 32 22 37 24 26 25 24 23 20 15 13 14 16 16 18 18 18 17 15 16 15 16 16 14 12 11 8 8
12 13 1 4 10 13 13 9 10 13 12 23 17 13 23 23 25 25 26 34 33 36 36 28 21 23 22 24 24 21 20 16 18 14 13 17 19 18 18 18 17 18 19 16 14 13 11 9 8
15 12 6 3 5 5 9 10 8 9 12 16 8 11 19 23 17 15 29 36 39 41 36 26 24 19 15 13 20 18 20 18 14 16 12 15 20 21 23 22 21 20 20 19 16 14 10 8 8
12 12 8 4 6 3 5 5 6 11 14 27 8 11 15 25 23 16 13 25 30 29 33 24 29 26 20 16 19 18 21 10 12 16 11 11 16 17 18 21 30 24 23 22 22 18 15 10 7
8 7 12 9 5 3 3 1 4 8 13 16 16 13 16 16 24 13 10 17 17 17 25 30 21 24 23 27 26 21 22 19 11 10 11 13 14 17 20 21 20 19 28 24 20 13 8 9 7
1 7 10 8 5 4 9 2 8 5 12 12 10 12 12 15 16 22 26 29 28 23 22 24 25 25 25 28 28 26 20 15 21 19 15 23 24 22 18 22 21 23 26 22 16 13 11 9 6
8 10 9 5 2 2 8 3 7 9 8 2 7 6 15 13 13 15 11 16 21 18 20 21 23 26 28 33 30 33 30 26 30 32 26 27 24 21 21 12 4 20 16 6 13 24 31 27 27
2 11 4 3 3 3 3 1 7 11 5 3 4 7 12 12 12 9 9 7 8 11 12 13 14 14 16 23 25 31 27 25 26 27 28 31 33 28 23 19 19 19 20 22 22 22 18 21 24
1 3 3 4 4 4 2 6 7 9 6 7 12 7 8 5 6 6 3 9 10 9 8 7 11 14 13 12 13 15 16 21 22 21 22 26 23 23 23 26 25 20 21 20 22 21 19 15 14
2 2 3 7 6 6 2 5 12 9 11 15 18 15 11 11 8 5 5 8 7 6 5 4 5 12 15 13 14 12 14 16 18 19 19 18 18 18 22 22 23 23 23 22 23 22 19 15 14
3 4 2 1 4 5 5 8 6 10 12 14 14 16 14 16 14 15 14 9 6 3 2 1 2 6 10 11 12 12 12 12 13 14 14 14 16 18 22 23 24 24 25 25 25 24 17 16 15
2 2 2 3 3 4 6 5 6 5 6 11 14 16 15 14 16 19 20 19 15 11 7 4 3 1 2 4 8 10 12 12 12 13 12 12 14 18 22 23 24 25 25 25 25 21 18 17 16
3 5 4 2 4 4 5 5 5 3 7 11 13 14 12 17 19 18 17 15 14 12 9 8 7 4 2 3 6 8 11 11 12 11 11 12 14 17 21 24 25 26 26 25 23 19 17 16 15
Wind_Direction
261 246 206 197 224 231 234 229 232 225 217 217 129 74 335 320 292 324 331 192 168 166 172 178 180 172 174 175 165 161 161 161 165 168 167 168 163 160 151 148 141 140 136 129 127 124 115 110 107
257 247 209 230 240 231 227 225 210 227 212 218 196 143 323 292 300 295 338 183 169 165 173 172 177 171 172 170 165 161 159 157 162 163 164 162 161 164 156 147 141 137 134 134 131 125 118 113 109
218 218 222 230 236 237 238 212 238 230 226 212 206 212 215 302 303 286 258 196 166 168 166 174 173 172 170 168 165 161 159 158 159 162 161 160 158 157 154 145 140 140 137 130 129 125 120 114 109
209 218 247 239 235 233 243 240 212 233 232 219 207 197 217 239 301 285 248 189 172 173 167 176 175 175 170 170 168 157 162 157 159 160 160 163 163 156 150 150 147 143 137 139 134 131 126 117 111
206 226 237 237 242 243 238 238 224 243 218 208 208 209 214 214 248 259 214 179 176 176 171 174 175 176 174 173 173 162 154 156 159 159 159 161 160 160 156 151 147 146 143 140 140 137 131 122 113
213 232 237 239 240 235 235 228 238 238 250 219 215 225 222 208 221 248 199 182 180 177 175 172 177 174 175 172 176 172 160 154 154 153 165 164 164 159 156 154 153 151 149 147 144 139 132 124 117
231 225 242 250 246 240 226 224 232 238 237 243 211 222 226 215 225 239 245 191 184 181 172 176 175 173 175 174 177 177 174 169 163 169 170 162 161 158 156 157 159 158 157 155 150 144 139 131 123
234 243 250 247 249 247 237 225 234 232 240 239 220 233 229 223 218 245 239 211 188 185 177 179 168 168 169 166 169 177 181 180 181 184 179 172 162 160 160 162 166 166 165 161 159 156 153 150 147
219 241 243 242 245 247 248 240 230 238 239 245 228 236 262 245 194 238 240 253 187 188 186 176 163 166 164 162 161 164 174 182 187 189 178 167 163 162 162 168 167 168 171 173 177 178 177 177 180
215 231 241 250 250 254 255 246 241 229 233 237 254 223 246 225 184 188 237 245 267 192 190 171 167 169 167 165 164 163 163 166 165 167 167 162 162 163 166 167 172 175 180 184 190 196 201 208 217
232 239 242 242 249 253 267 261 238 231 239 230 235 243 228 177 172 170 185 211 226 192 188 175 169 170 172 165 167 174 160 158 161 164 165 166 167 169 169 173 176 181 186 192 198 208 214 217 215
244 243 240 247 249 257 255 260 258 252 248 239 233 301 210 185 183 190 181 174 144 159 189 176 172 169 171 171 166 170 175 165 163 167 170 172 174 174 175 177 186 189 195 201 205 212 223 224 220
234 244 242 245 252 254 258 259 253 251 256 256 240 252 246 191 179 166 167 151 189 260 188 176 177 177 172 175 174 177 177 181 174 171 174 176 180 180 183 188 193 200 207 211 215 218 221 216 218
250 244 246 247 251 250 244 254 245 248 279 269 239 251 260 211 173 175 193 198 227 231 203 179 183 179 173 176 183 187 186 188 189 182 181 182 186 186 189 194 202 213 219 220 219 213 215 217 222
263 260 254 245 241 243 231 250 239 246 266 285 248 244 255 206 177 185 182 201 193 189 225 183 188 179 177 175 181 188 188 193 196 194 188 190 196 196 198 205 214 216 218 217 216 214 219 220 222
353 259 245 243 219 229 216 242 225 206 346 296 255 246 242 208 194 179 188 205 202 201 191 187 200 182 179 179 178 182 189 192 195 196 200 201 201 202 211 221 225 227 226 222 219 219 221 219 225
213 267 211 213 193 187 203 238 165 14 3 320 260 249 221 208 204 196 204 201 199 186 170 189 205 200 193 189 181 182 184 196 201 205 206 205 204 206 216 222 232 231 234 231 225 223 219 222 229
301 232 215 164 184 198 198 238 236 285 347 323 249 240 209 199 217 199 194 197 199 183 192 171 199 208 206 195 191 188 189 189 200 205 208 209 209 209 215 222 229 230 233 231 226 220 220 217 232
257 279 233 39 161 194 210 234 261 273 304 331 231 215 194 193 221 195 184 195 189 176 170 185 197 201 196 199 200 195 192 202 216 217 216 218 219 217 217 220 232 233 233 233 224 217 217 231 243
239 228 143 113 161 148 187 228 250 290 266 272 194 160 158 177 187 122 183 190 185 179 187 189 200 205 221 215 204 206 201 201 216 212 226 235 239 240 233 231 236 239 231 226 216 207 210 214 249
232 199 170 143 153 183 163 20 329 310 263 250 154 116 142 151 138 83 135 193 201 198 199 203 208 208 215 212 253 226 218 231 217 213 218 230 238 251 260 259 248 243 227 219 211 201 218 226 245
194 218 176 139 220 114 326 355 191 294 222 162 104 105 113 139 140 162 148 171 184 196 216 226 217 215 223 218 231 246 232 240 237 249 249 245 259 261 261 265 266 270 234 223 212 209 228 232 275
253 165 181 203 240 167 41 351 342 273 79 99 107 99 96 112 129 174 189 197 205 217 215 217 221 227 237 238 224 248 244 239 251 253 257 267 274 269 273 263 268 248 248 231 203 209 246 260 292
312 149 161 181 217 101 24 332 19 13 351 20 83 102 91 97 136 147 162 186 206 206 215 224 228 235 240 235 235 235 237 221 223 232 232 252 249 244 255 259 247 253 232 255 246 235 250 261 262
217 170 143 153 68 53 1 354 42 333 325 292 289 132 106 122 102 142 183 190 184 193 204 202 208 217 222 229 235 242 250 250 245 244 246 240 252 239 241 229 229 228 233 222 234 227 227 242 243
220 293 296 112 132 115 237 42 2 11 57 83 133 112 110 113 79 28 240 187 201 197 207 220 224 221 222 227 229 234 243 241 239 243 244 250 240 240 237 239 229 215 214 219 214 220 231 218 227
177 254 344 109 76 85 48 100 68 58 80 82 64 70 72 87 118 208 247 195 200 205 215 231 243 232 233 241 235 226 224 228 235 238 241 242 245 236 229 215 208 208 221 210 216 216 210 225 238
281 332 196 23 116 99 97 64 78 53 77 90 100 96 98 106 110 101 91 103 141 160 146 183 225 230 230 238 237 235 229 225 230 234 236 235 234 230 218 213 212 211 210 212 213 206 226 244 255
355 64 55 101 5 114 123 90 356 6 65 93 93 97 104 99 90 86 84 82 82 85 93 94 98 136 188 212 221 225 231 232 231 232 235 236 235 227 220 215 211 209 211 211 208 221 241 251 255
317 5 4 24 73 45 68 83 2 84 87 87 91 95 84 85 85 82 80 79 77 72 66 55 44 22 330 261 236 230 235 238 242 244 243 237 232 225 218 215 212 212 210 207 217 237 246 248 253